Theta_e
310 309 310 309 308 310 308 309 310 309 309 311 310 308 310 308 307 305 304 304 304 304 303 303 304 305 307 309 311 315 317 319 320 322 321 321 321 319 319 317 317 317 316 316
307 309 308 307 307 308 307 309 309 308 308 309 309 309 309 308 305 305 304 303 303 302 302 302 303 304 305 307 310 311 314 318 319 320 320 320 318 316 317 316 314 313 313 312
308 310 306 307 307 308 307 308 308 310 309 308 308 310 309 305 303 303 303 302 301 301 301 302 303 304 304 305 306 307 309 311 311 311 312 314 315 314 310 306 305 304 304 304
307 308 309 307 308 306 308 306 307 309 310 313 309 315 309 306 304 301 300 300 300 300 301 301 302 303 304 304 305 305 305 304 304 305 306 305 305 304 303 303 302 302 301 301
314 308 309 310 309 307 311 306 307 309 309 309 309 310 309 306 307 302 299 299 299 300 301 302 302 302 302 301 302 302 302 302 302 302 302 303 304 302 301 300 299 299 298 297
310 309 307 309 307 307 305 307 306 305 306 309 309 311 310 308 307 303 300 300 299 298 299 300 300 299 300 300 300 301 302 302 301 301 301 301 301 300 298 297 296 295 294 294
310 309 308 307 307 306 307 308 312 313 311 314 307 307 310 307 304 303 301 300 299 299 300 300 300 299 299 299 299 301 301 301 300 299 299 298 297 296 296 295 295 294 293 293
313 314 309 307 308 308 306 309 313 315 313 313 306 311 311 303 301 301 302 303 300 299 299 300 299 298 299 298 299 299 299 299 298 297 297 297 296 295 295 295 294 293 292 291
311 312 307 306 306 308 308 309 308 309 295 308 311 310 308 301 301 299 300 301 300 300 300 300 298 298 298 297 298 297 297 297 296 296 295 295 294 294 293 293 291 290 290 289
311 316 309 307 307 307 308 307 311 308 310 310 311 312 314 306 304 299 297 299 300 300 300 299 299 299 298 297 298 297 296 294 294 294 293 293 292 291 291 290 290 289 289 288
309 314 311 307 308 309 309 309 309 309 309 312 310 312 305 306 303 301 299 301 302 301 301 301 301 300 299 297 297 295 295 294 293 292 291 291 290 290 289 289 288 288 288 288
310 311 309 310 306 305 307 308 309 313 311 306 309 313 303 303 302 303 302 302 303 303 303 302 302 301 299 299 298 296 295 294 293 291 290 290 289 289 288 288 288 288 288 287
309 311 310 311 309 306 308 306 307 307 306 307 311 311 301 301 300 302 303 303 303 303 303 302 302 301 300 300 298 297 295 294 292 290 289 289 288 288 288 288 288 288 288 288
311 309 312 319 313 309 309 307 306 309 308 310 312 312 303 302 302 301 303 304 304 304 304 303 302 301 301 300 299 297 295 293 291 290 289 288 288 288 288 288 288 288 288 288
312 313 307 309 308 308 309 308 306 308 310 313 312 311 306 304 302 303 304 303 303 304 303 302 301 301 300 299 298 297 295 293 291 290 288 289 288 288 288 288 288 288 288 288
307 314 307 307 306 305 307 305 306 308 308 308 309 308 304 306 304 302 303 303 303 303 302 301 300 299 299 299 298 297 295 293 291 290 290 289 288 288 288 288 288 288 288 288
310 307 311 316 301 306 311 307 305 306 304 308 307 308 298 300 300 302 304 303 302 302 301 299 298 298 296 295 295 297 295 293 291 291 290 289 288 288 288 288 288 287 288 288
307 308 310 301 302 311 303 294 302 306 304 300 298 294 298 300 302 302 300 299 299 298 298 297 295 294 294 294 295 295 293 292 291 291 290 289 288 288 288 287 287 287 287 287
302 305 303 305 306 304 300 293 299 303 302 297 302 298 295 294 294 295 296 297 296 294 294 294 294 293 292 292 293 293 292 291 291 290 290 289 288 288 287 287 287 287 287 287
300 304 309 300 306 308 301 293 294 295 300 291 300 298 290 292 290 291 295 294 292 292 293 293 293 292 291 291 290 290 290 289 289 289 289 288 287 287 287 286 286 286 287 287
299 299 307 303 304 304 293 290 294 299 301 293 295 293 291 290 294 293 292 292 292 292 293 292 292 291 291 290 290 290 289 288 288 288 289 288 288 287 286 286 286 286 287 286
300 302 301 300 302 305 292 291 296 297 292 294 294 295 295 295 293 292 292 292 292 292 292 291 291 291 290 290 290 290 289 289 289 288 288 288 287 286 286 286 285 286 286 285
299 301 300 300 300 291 292 294 295 295 295 294 295 295 295 293 292 292 292 291 291 292 291 291 291 291 290 290 290 290 289 288 289 288 288 287 286 286 285 285 286 285 285 284
290 289 293 294 291 291 292 294 294 294 295 295 295 294 293 292 292 292 291 291 291 291 291 291 290 290 290 290 290 290 289 288 288 288 287 287 286 285 285 285 284 284 283 281
292 290 289 290 289 290 292 293 295 294 294 294 293 293 293 292 292 291 291 291 291 291 291 291 290 290 290 290 290 289 289 288 288 287 287 286 285 284 284 283 283 282 280 279
289 289 291 291 291 292 293 294 294 294 294 294 293 293 292 292 292 291 291 291 291 290 291 290 290 290 290 290 289 289 289 288 288 287 286 285 284 284 283 282 282 280 278 278
Wind_Speed
3 4 8 12 9 3 5 4 6 2 2 3 6 6 13 10 12 10 11 11 8 6 5 4 5 6 6 6 6 8 11 14 14 16 18 18 17 12 9 6 4 3 2 2
4 7 8 4 4 4 4 4 6 5 3 3 6 9 12 6 5 10 17 15 12 11 10 9 10 11 12 13 13 12 11 11 11 10 14 14 12 11 9 8 5 4 3 2
8 4 9 8 4 6 5 7 4 6 3 2 3 7 6 1 2 1 9 10 11 12 11 13 14 16 17 18 19 18 17 17 16 15 14 14 13 14 13 12 12 11 10 9
5 2 5 4 5 7 5 8 6 4 3 4 1 5 6 0 2 3 10 14 15 15 14 15 15 17 18 20 21 22 22 20 19 18 17 16 16 15 15 13 12 12 11 10
7 7 5 5 7 7 6 6 7 4 4 2 3 1 7 1 5 4 11 15 17 17 17 17 15 16 17 19 20 21 21 20 19 16 12 9 9 12 12 11 9 10 11 11
4 2 6 7 2 5 9 6 6 4 3 1 8 7 4 4 5 4 13 20 18 16 14 13 13 13 16 18 18 18 16 15 12 9 8 7 8 10 9 9 7 9 10 9
1 5 3 4 6 2 1 6 0 1 0 5 1 5 7 6 5 4 15 26 24 21 20 19 18 16 13 14 15 14 11 9 8 6 7 8 8 8 6 6 6 6 6 6
7 5 11 7 7 8 7 6 5 7 4 3 2 6 6 4 2 4 6 23 25 24 22 20 18 17 17 16 13 10 8 6 6 5 4 4 4 4 3 2 3 4 5 7
7 5 1 2 3 5 5 5 2 5 3 2 4 4 4 1 1 3 11 23 29 27 25 23 22 20 18 15 13 10 8 6 4 3 3 3 4 2 1 1 2 3 6 7
7 3 0 3 4 3 4 6 3 2 1 4 4 4 4 6 7 5 9 24 29 27 25 23 22 20 17 17 14 14 11 8 7 7 7 7 6 4 3 3 4 4 5 6
5 3 1 4 7 11 4 3 3 3 4 5 2 4 5 8 8 12 18 27 31 30 29 27 24 21 19 19 17 16 14 11 10 10 9 9 8 7 6 4 3 5 7 10
9 4 4 8 2 1 3 8 7 5 6 3 3 5 0 3 8 16 20 26 28 28 27 25 23 24 24 22 20 19 17 15 14 14 13 13 12 9 6 4 5 8 11 14
10 4 2 5 2 2 5 5 4 4 3 8 5 5 3 4 6 13 15 22 26 26 25 24 25 28 27 25 24 22 21 19 18 18 17 16 13 10 7 5 8 11 14 17
18 6 9 15 6 6 6 6 6 7 4 5 13 13 6 6 9 13 19 22 23 24 25 26 27 29 27 26 25 24 24 22 21 20 19 17 15 12 10 9 11 14 17 20
8 8 6 4 3 4 7 7 11 12 13 11 11 13 7 13 11 22 22 17 20 24 26 26 26 25 24 25 26 27 27 24 23 22 21 19 18 17 15 14 14 15 18 20
3 5 5 4 3 2 4 9 11 15 11 10 11 15 6 16 15 14 17 19 21 22 20 18 18 20 21 21 23 27 28 26 25 24 22 22 23 22 20 19 18 18 20 24
9 7 5 6 3 4 8 15 16 8 6 12 12 17 5 6 10 17 20 21 23 18 18 16 14 14 17 19 20 23 23 24 26 25 24 26 28 27 25 24 22 21 23 26
8 7 4 3 4 7 1 1 7 16 8 6 1 4 10 9 16 14 15 15 14 14 13 13 15 17 17 17 18 16 18 22 25 26 28 30 31 30 29 27 25 25 26 28
1 5 4 5 6 6 4 5 8 8 9 10 12 7 9 10 7 7 11 10 11 11 12 14 16 16 15 15 14 15 16 19 24 28 31 31 32 32 31 29 27 26 27 31
2 1 5 3 5 10 2 2 8 5 6 8 17 9 12 14 3 4 13 12 11 13 15 16 16 16 14 12 11 13 18 20 22 23 23 25 28 30 30 29 27 27 28 33
4 2 8 4 4 5 5 6 12 6 5 10 21 13 23 5 8 10 8 7 8 12 14 15 16 17 13 13 15 17 17 18 18 21 24 25 27 28 28 28 27 27 32 33
6 8 4 2 2 8 14 5 8 5 7 13 15 18 21 17 13 9 7 9 12 16 16 16 21 21 16 16 18 19 21 19 19 23 24 26 27 28 28 27 27 30 33 34
3 6 6 9 5 1 28 4 12 14 17 17 17 18 19 21 16 11 11 12 14 18 15 16 22 25 21 20 21 23 24 24 23 24 25 26 27 27 28 29 30 32 33 34
4 4 3 4 4 4 25 12 14 15 15 13 11 16 23 22 18 14 12 12 13 18 19 15 20 29 30 27 25 26 27 27 26 27 28 27 27 28 29 30 31 33 33 31
3 8 6 0 1 2 11 26 19 19 18 16 17 20 23 22 22 17 16 16 17 17 21 21 22 25 29 28 26 26 27 26 27 28 28 27 27 28 29 29 30 31 30 30
8 6 4 4 13 9 8 18 20 24 24 22 21 21 22 23 22 20 22 20 17 19 19 22 24 27 28 24 23 25 27 27 28 29 28 27 28 29 30 31 31 28 28 29
Wind_Direction
126 122 211 199 197 136 139 176 231 219 258 179 236 254 274 199 192 188 191 185 177 155 116 99 92 80 79 87 103 121 115 112 123 132 136 139 148 152 154 158 150 174 227 261
55 228 212 132 150 149 135 180 248 294 226 167 268 254 259 246 213 215 195 187 177 159 137 116 106 108 108 108 107 109 118 113 117 120 127 136 132 123 118 103 101 89 61 51
168 208 154 146 158 163 201 200 197 222 355 250 327 282 252 244 168 202 200 188 164 148 135 121 118 115 109 109 109 108 105 109 109 104 104 109 112 105 98 90 83 72 59 47
231 247 165 167 199 149 208 195 181 176 102 239 34 283 306 156 179 119 157 172 167 160 149 134 128 122 120 115 114 113 113 103 97 97 98 99 99 101 94 86 79 77 69 58
234 169 171 187 208 172 223 136 162 134 154 82 258 295 266 339 262 191 189 182 178 171 165 157 148 140 131 120 119 116 110 105 100 99 95 79 73 82 83 77 71 59 49 40
243 233 173 199 123 168 149 84 61 61 112 224 224 182 261 215 208 154 187 194 187 175 165 159 153 146 139 135 126 118 113 107 103 96 88 79 77 87 92 84 67 53 39 27
185 217 201 161 92 58 153 111 112 335 282 226 176 146 238 206 189 194 194 190 186 182 175 171 167 161 155 147 140 135 128 116 107 110 101 95 91 96 86 69 42 25 10 2
168 261 169 188 185 177 187 179 169 205 198 222 41 220 254 173 192 256 219 195 186 185 182 180 176 173 171 171 167 165 157 150 139 133 117 116 122 125 105 45 3 348 351 354
169 270 155 132 150 142 196 215 172 98 57 64 225 285 275 177 197 104 172 187 190 189 188 185 184 183 184 189 189 192 196 189 174 173 190 190 186 182 205 257 307 332 340 333
205 141 303 155 109 39 165 165 93 7 219 267 271 261 228 210 209 173 186 193 194 192 193 192 194 195 193 201 207 215 213 214 212 210 209 210 212 218 243 274 279 289 301 312
153 145 197 128 208 174 150 198 70 128 152 194 259 246 217 189 187 195 203 199 195 196 197 195 198 202 207 213 218 225 227 230 228 225 223 224 228 233 233 243 281 316 327 330
195 138 168 204 313 319 196 181 162 168 216 222 173 237 282 235 220 200 204 200 197 201 199 199 201 207 214 219 227 233 234 236 232 229 229 231 231 230 236 267 318 333 335 333
172 193 104 338 331 340 217 192 140 97 69 196 180 247 190 221 199 205 202 201 201 201 204 207 209 215 220 226 233 236 236 235 232 230 232 232 233 237 252 286 316 325 329 330
160 159 195 226 191 141 183 188 178 168 176 188 228 252 213 205 194 200 204 202 202 205 208 213 218 224 228 235 241 242 239 236 233 232 233 236 241 247 258 277 301 316 322 324
152 211 173 229 150 172 183 169 180 197 215 213 246 234 182 202 199 206 206 200 205 211 217 221 228 233 240 245 247 245 241 236 235 234 236 242 244 250 256 272 289 300 310 316
127 198 148 193 156 195 246 214 187 203 216 240 254 255 191 221 206 186 196 196 211 221 227 222 241 247 248 249 251 247 240 236 233 236 244 245 248 252 259 268 276 287 300 308
166 149 144 209 109 110 267 218 191 195 195 196 221 244 163 210 207 216 230 228 231 234 231 241 235 239 248 256 260 254 242 236 236 242 246 248 251 254 260 265 272 282 291 301
147 143 156 133 145 217 238 39 187 205 215 182 121 203 189 205 222 233 225 226 228 231 220 224 237 242 245 247 246 235 230 236 241 249 253 254 254 256 259 263 270 279 290 302
36 143 149 163 204 336 172 195 158 163 246 183 206 202 183 160 149 236 218 203 197 212 224 232 231 234 233 230 228 229 234 243 251 257 260 261 259 258 259 263 271 282 293 302
2 42 196 142 188 205 260 164 145 107 272 218 197 195 153 144 148 234 182 191 215 225 223 227 232 228 220 217 230 254 265 267 268 270 273 266 259 259 260 266 274 284 297 300
120 65 214 175 217 277 211 186 150 139 248 183 199 180 162 184 199 144 179 215 231 231 228 233 233 224 217 253 272 266 269 273 282 274 270 267 262 261 263 268 277 288 298 297
152 160 185 120 212 260 158 108 167 187 147 156 171 187 196 199 175 200 225 235 234 231 228 234 232 224 242 276 275 265 264 275 279 275 270 266 263 263 266 272 282 292 294 296
203 180 177 191 204 5 172 139 185 168 162 168 176 189 198 190 207 215 228 230 240 236 231 245 245 236 252 271 270 268 268 270 278 274 266 265 265 266 269 275 284 291 293 293
260 157 174 117 196 196 198 204 188 189 183 184 206 211 202 211 223 232 236 237 244 238 236 251 251 245 252 265 269 268 266 265 277 274 264 264 266 269 273 278 285 289 289 289
192 134 138 43 242 216 233 218 207 204 212 219 221 223 222 225 232 243 263 269 257 249 246 253 253 252 258 263 263 266 263 267 277 269 263 263 267 270 273 278 283 286 286 286
182 151 164 207 195 178 212 222 228 225 223 236 240 235 235 237 248 260 266 268 256 247 250 247 252 259 263 255 258 260 260 264 267 266 264 267 272 275 279 282 284 282 283 286